Time,TemperatureF,DewpointF,PressureIn,WindDirection,WindDirectionDegrees,WindSpeedMPH,WindSpeedGustMPH,Humidity,HourlyPrecipIn,Conditions,Clouds,dailyrainin,SolarRadiationWatts/m^2,SoftwareType,DateUTC
2013-08-06 06:40:00,53.0,35.0,-100.00,ESE,105,2.0,7.0,50,0.00,,,0.00,0.000000,,2013-08-06 06:40:00,
2013-08-06 07:01:00,53.0,35.0,-100.00,ESE,105,2.0,7.0,50,0.00,,,0.00,0.000000,,2013-08-06 07:01:00,
2013-08-06 07:12:00,53.0,35.0,-100.00,ESE,105,2.0,7.0,50,0.00,,,0.00,0.000000,,2013-08-06 07:12:00,
2013-08-06 07:22:00,53.0,35.0,-100.00,ESE,105,2.0,7.0,50,0.00,,,0.00,0.000000,,2013-08-06 07:22:00,
2013-08-06 07:32:00,53.0,35.0,-100.00,ESE,105,2.0,7.0,50,0.00,,,0.00,0.000000,,2013-08-06 07:32:00,
2013-08-06 07:40:00,53.0,35.0,-100.00,South,190,2.0,6.0,51,0.00,,,0.00,0.000000,,2013-08-06 07:40:00,
2013-08-06 08:01:00,53.0,35.0,-100.00,South,190,2.0,6.0,51,0.00,,,0.00,0.000000,,2013-08-06 08:01:00,
2013-08-06 08:11:00,53.0,35.0,-100.00,South,190,2.0,6.0,51,0.00,,,0.00,0.000000,,2013-08-06 08:11:00,
2013-08-06 08:22:00,53.0,35.0,-100.00,South,190,2.0,6.0,51,0.00,,,0.00,0.000000,,2013-08-06 08:22:00,
2013-08-06 08:33:00,53.0,35.0,-100.00,South,190,2.0,6.0,51,0.00,,,0.00,0.000000,,2013-08-06 08:33:00,
2013-08-06 08:40:00,47.0,36.0,-100.00,North,349,2.0,10.0,66,0.00,,,0.00,0.000000,,2013-08-06 08:40:00,
2013-08-06 09:01:00,47.0,36.0,-100.00,North,349,2.0,10.0,66,0.00,,,0.00,0.000000,,2013-08-06 09:01:00,
2013-08-06 09:11:00,47.0,36.0,-100.00,North,349,2.0,10.0,66,0.00,,,0.00,0.000000,,2013-08-06 09:11:00,
2013-08-06 09:22:00,47.0,36.0,-100.00,North,349,2.0,10.0,66,0.00,,,0.00,0.000000,,2013-08-06 09:22:00,
2013-08-06 09:32:00,47.0,36.0,-100.00,North,349,2.0,10.0,66,0.00,,,0.00,0.000000,,2013-08-06 09:32:00,
2013-08-06 09:40:00,43.0,38.0,-100.00,NW,323,2.0,8.0,82,0.00,,,0.00,0.000000,,2013-08-06 09:40:00,
2013-08-06 10:11:00,43.0,38.0,-100.00,NW,323,2.0,8.0,82,0.00,,,0.00,0.000000,,2013-08-06 10:11:00,
2013-08-06 10:22:00,43.0,38.0,-100.00,NW,323,2.0,8.0,82,0.00,,,0.00,0.000000,,2013-08-06 10:22:00,
2013-08-06 10:32:00,43.0,38.0,-100.00,NW,323,2.0,8.0,82,0.00,,,0.00,0.000000,,2013-08-06 10:32:00,
2013-08-06 10:40:00,44.0,39.0,-100.00,SSW,203,2.0,6.0,84,0.00,,,0.00,0.000000,,2013-08-06 10:40:00,
2013-08-06 11:11:00,44.0,39.0,-100.00,SSW,203,2.0,6.0,84,0.00,,,0.00,0.000000,,2013-08-06 11:11:00,
2013-08-06 11:22:00,44.0,39.0,-100.00,SSW,203,2.0,6.0,84,0.00,,,0.00,0.000000,,2013-08-06 11:22:00,
2013-08-06 11:32:00,44.0,39.0,-100.00,SSW,203,2.0,6.0,84,0.00,,,0.00,0.000000,,2013-08-06 11:32:00,
2013-08-06 11:40:00,47.0,38.0,-100.00,SSE,155,2.0,12.0,72,0.00,,,0.00,0.000000,,2013-08-06 11:40:00,
2013-08-06 12:02:00,47.0,38.0,-100.00,SSE,155,2.0,12.0,72,0.00,,,0.00,0.000000,,2013-08-06 12:02:00,
2013-08-06 12:11:00,47.0,38.0,-100.00,SSE,155,2.0,12.0,72,0.00,,,0.00,0.000000,,2013-08-06 12:11:00,
2013-08-06 12:22:00,47.0,38.0,-100.00,SSE,155,2.0,12.0,72,0.00,,,0.00,0.000000,,2013-08-06 12:22:00,
2013-08-06 12:32:00,47.0,38.0,-100.00,SSE,155,2.0,12.0,72,0.00,,,0.00,0.000000,,2013-08-06 12:32:00,
2013-08-06 12:40:00,52.0,37.0,-100.00,SW,222,7.0,15.0,56,0.00,,,0.00,6.000000,,2013-08-06 12:40:00,
2013-08-06 13:02:00,52.0,37.0,-100.00,SW,222,7.0,15.0,56,0.00,,,0.00,6.000000,,2013-08-06 13:02:00,
2013-08-06 13:11:00,52.0,37.0,-100.00,SW,222,7.0,15.0,56,0.00,,,0.00,6.000000,,2013-08-06 13:11:00,
2013-08-06 13:22:00,52.0,37.0,-100.00,SW,222,7.0,15.0,56,0.00,,,0.00,6.000000,,2013-08-06 13:22:00,
2013-08-06 13:32:00,52.0,37.0,-100.00,SW,222,7.0,15.0,56,0.00,,,0.00,6.000000,,2013-08-06 13:32:00,
2013-08-06 13:40:00,57.0,36.0,-100.00,West,273,3.0,12.0,46,0.00,,,0.00,154.000000,,2013-08-06 13:40:00,
2013-08-06 14:40:00,59.0,41.0,-100.00,North,9,1.0,9.0,51,0.00,,,0.00,252.000000,,2013-08-06 14:40:00,
2013-08-06 15:11:00,59.0,41.0,-100.00,North,9,1.0,9.0,51,0.00,,,0.00,252.000000,,2013-08-06 15:11:00,
2013-08-06 15:22:00,59.0,41.0,-100.00,North,9,1.0,9.0,51,0.00,,,0.00,252.000000,,2013-08-06 15:22:00,
2013-08-06 15:33:00,59.0,41.0,-100.00,North,9,1.0,9.0,51,0.00,,,0.00,252.000000,,2013-08-06 15:33:00,
2013-08-06 15:40:00,65.0,41.0,-100.00,SSE,163,2.0,5.0,41,0.00,,,0.00,598.000000,,2013-08-06 15:40:00,
2013-08-06 16:32:00,65.0,41.0,-100.00,SSE,163,2.0,5.0,41,0.00,,,0.00,598.000000,,2013-08-06 16:32:00,
2013-08-06 16:40:00,62.0,43.0,-100.00,ENE,57,5.0,12.0,49,0.00,,,0.00,730.000000,,2013-08-06 16:40:00,
2013-08-06 17:11:00,62.0,43.0,-100.00,ENE,57,5.0,12.0,49,0.00,,,0.00,730.000000,,2013-08-06 17:11:00,
2013-08-06 17:21:00,62.0,43.0,-100.00,ENE,57,5.0,12.0,49,0.00,,,0.00,730.000000,,2013-08-06 17:21:00,
2013-08-06 17:32:00,62.0,43.0,-100.00,ENE,57,5.0,12.0,49,0.00,,,0.00,730.000000,,2013-08-06 17:32:00,
2013-08-06 17:40:00,66.0,38.0,-100.00,NNE,25,4.0,10.0,36,0.00,,,0.00,1000.000000,,2013-08-06 17:40:00,
2013-08-06 18:01:00,66.0,38.0,-100.00,NNE,25,4.0,10.0,36,0.00,,,0.00,1000.000000,,2013-08-06 18:01:00,
2013-08-06 18:11:00,66.0,38.0,-100.00,NNE,25,4.0,10.0,36,0.00,,,0.00,1000.000000,,2013-08-06 18:11:00,
2013-08-06 18:22:00,66.0,38.0,-100.00,NNE,25,4.0,10.0,36,0.00,,,0.00,1000.000000,,2013-08-06 18:22:00,
2013-08-06 18:32:00,66.0,38.0,-100.00,NNE,25,4.0,10.0,36,0.00,,,0.00,1000.000000,,2013-08-06 18:32:00,
2013-08-06 18:40:00,69.0,38.0,-100.00,East,92,5.0,10.0,32,0.00,,,0.00,1120.000000,,2013-08-06 18:40:00,
2013-08-06 19:32:00,69.0,38.0,-100.00,East,92,5.0,10.0,32,0.00,,,0.00,1120.000000,,2013-08-06 19:32:00,
2013-08-06 19:40:00,66.0,39.0,-100.00,SSE,159,6.0,13.0,37,0.00,,,0.00,1119.000000,,2013-08-06 19:40:00,
2013-08-06 20:11:00,66.0,39.0,-100.00,SSE,159,6.0,13.0,37,0.00,,,0.00,1119.000000,,2013-08-06 20:11:00,
2013-08-06 20:22:00,66.0,39.0,-100.00,SSE,159,6.0,13.0,37,0.00,,,0.00,1119.000000,,2013-08-06 20:22:00,
2013-08-06 20:32:00,66.0,39.0,-100.00,SSE,159,6.0,13.0,37,0.00,,,0.00,1119.000000,,2013-08-06 20:32:00,
2013-08-06 20:40:00,73.0,41.0,-100.00,NNE,32,5.0,14.0,32,0.00,,,0.00,1150.000000,,2013-08-06 20:40:00,
2013-08-06 21:32:00,73.0,41.0,-100.00,NNE,32,5.0,14.0,32,0.00,,,0.00,1150.000000,,2013-08-06 21:32:00,
2013-08-06 21:40:00,70.0,38.0,-100.00,NNE,20,4.0,12.0,31,-99.99,,,0.00,1045.000000,,2013-08-06 21:40:00,
2013-08-06 22:01:00,70.0,38.0,-100.00,NNE,20,4.0,12.0,31,-99.99,,,0.00,1045.000000,,2013-08-06 22:01:00,
2013-08-06 22:11:00,70.0,38.0,-100.00,NNE,20,4.0,12.0,31,-99.99,,,0.00,1045.000000,,2013-08-06 22:11:00,
2013-08-06 22:22:00,70.0,38.0,-100.00,NNE,20,4.0,12.0,31,-99.99,,,0.00,1045.000000,,2013-08-06 22:22:00,
2013-08-06 22:32:00,70.0,38.0,-100.00,NNE,20,4.0,12.0,31,-99.99,,,0.00,1045.000000,,2013-08-06 22:32:00,
2013-08-06 22:40:00,71.0,38.0,-100.00,SSE,157,5.0,12.0,30,0.00,,,0.00,903.000000,,2013-08-06 22:40:00,
2013-08-06 23:11:00,71.0,38.0,-100.00,SSE,157,5.0,12.0,30,0.00,,,0.00,903.000000,,2013-08-06 23:11:00,
2013-08-06 23:22:00,71.0,38.0,-100.00,SSE,157,5.0,12.0,30,0.00,,,0.00,903.000000,,2013-08-06 23:22:00,
2013-08-06 23:32:00,71.0,38.0,-100.00,SSE,157,5.0,12.0,30,0.00,,,0.00,903.000000,,2013-08-06 23:32:00,
2013-08-06 23:40:00,67.0,34.0,-100.00,NNE,23,3.0,10.0,29,0.00,,,0.00,583.000000,,2013-08-06 23:40:00,